Year,Month,Day,Hour,Minute,Value (Times are PST for temperature in C)
2015,06,19,00,00,13.40
2015,06,19,00,01,13.40
2015,06,19,00,02,13.40
2015,06,19,00,03,13.40
2015,06,19,00,04,13.40
2015,06,19,00,05,13.30
2015,06,19,00,06,13.30
2015,06,19,00,07,13.30
2015,06,19,00,08,13.30
2015,06,19,00,09,13.30
2015,06,19,00,10,13.30
2015,06,19,00,11,13.30
2015,06,19,00,12,13.40
2015,06,19,00,13,13.30
2015,06,19,00,14,13.40
2015,06,19,00,15,13.40
2015,06,19,00,16,13.40
2015,06,19,00,17,13.40
2015,06,19,00,18,13.40
2015,06,19,00,19,13.40
2015,06,19,00,20,13.40
2015,06,19,00,21,13.40
2015,06,19,00,22,13.40
2015,06,19,00,23,13.40
2015,06,19,00,24,13.40
2015,06,19,00,25,13.40
2015,06,19,00,26,13.40
2015,06,19,00,27,13.40
2015,06,19,00,28,13.40
2015,06,19,00,29,13.40
2015,06,19,00,30,13.40
2015,06,19,00,31,13.50
2015,06,19,00,32,13.50
2015,06,19,00,33,13.40
2015,06,19,00,34,13.40
2015,06,19,00,35,13.40
2015,06,19,00,36,13.40
2015,06,19,00,37,13.40
2015,06,19,00,38,13.40
2015,06,19,00,39,13.40
2015,06,19,00,40,13.40
2015,06,19,00,41,13.40
2015,06,19,00,42,13.40
2015,06,19,00,43,13.40
2015,06,19,00,44,13.40
2015,06,19,00,45,13.40
2015,06,19,00,46,13.40
2015,06,19,00,47,13.40
2015,06,19,00,48,13.40
2015,06,19,00,49,13.40
2015,06,19,00,50,13.40
2015,06,19,00,51,13.40
2015,06,19,00,52,13.40
2015,06,19,00,53,13.40
2015,06,19,00,54,13.40
2015,06,19,00,55,13.40
2015,06,19,00,56,13.40
2015,06,19,00,57,13.40
2015,06,19,00,58,13.40
2015,06,19,00,59,13.40
2015,06,19,01,00,13.40
2015,06,19,01,01,13.40
2015,06,19,01,02,13.40
2015,06,19,01,03,13.40
2015,06,19,01,04,13.40
2015,06,19,01,05,13.40
2015,06,19,01,06,13.40
2015,06,19,01,07,13.40
2015,06,19,01,08,13.40
2015,06,19,01,09,13.40
2015,06,19,01,10,13.40
2015,06,19,01,11,13.40
2015,06,19,01,12,13.40
2015,06,19,01,13,13.40
2015,06,19,01,14,13.40
2015,06,19,01,15,13.30
2015,06,19,01,16,13.30
2015,06,19,01,17,13.30
2015,06,19,01,18,13.30
2015,06,19,01,19,13.30
2015,06,19,01,20,13.30
2015,06,19,01,21,13.30
2015,06,19,01,22,13.30
2015,06,19,01,23,13.30
2015,06,19,01,24,13.30
2015,06,19,01,25,13.30
2015,06,19,01,26,13.30
2015,06,19,01,27,13.30
2015,06,19,01,28,13.30
2015,06,19,01,29,13.20
2015,06,19,01,30,13.20
2015,06,19,01,31,13.20
2015,06,19,01,32,13.20
2015,06,19,01,33,13.20
2015,06,19,01,34,13.20
2015,06,19,01,35,13.20
2015,06,19,01,36,13.20
2015,06,19,01,37,13.20
2015,06,19,01,38,13.20
2015,06,19,01,39,13.10
2015,06,19,01,40,13.10
2015,06,19,01,41,13.10
2015,06,19,01,42,13.10
2015,06,19,01,43,13.10
2015,06,19,01,44,13.10
2015,06,19,01,45,13.10
2015,06,19,01,46,13.10
2015,06,19,01,47,13.10
2015,06,19,01,48,13.00
2015,06,19,01,49,13.00
2015,06,19,01,50,13.00
2015,06,19,01,51,13.00
2015,06,19,01,52,13.00
2015,06,19,01,53,13.00
2015,06,19,01,54,12.90
2015,06,19,01,55,12.90
2015,06,19,01,56,12.90
2015,06,19,01,57,12.90
2015,06,19,01,58,12.90
2015,06,19,01,59,12.90
2015,06,19,02,00,12.80
2015,06,19,02,01,12.80
2015,06,19,02,02,12.80
2015,06,19,02,03,12.80
2015,06,19,02,04,12.80
2015,06,19,02,05,12.80
2015,06,19,02,06,12.80
2015,06,19,02,07,12.80
2015,06,19,02,08,12.80
2015,06,19,02,09,12.80
2015,06,19,02,10,12.80
2015,06,19,02,11,12.80
2015,06,19,02,12,12.80
2015,06,19,02,13,12.80
2015,06,19,02,14,12.80
2015,06,19,02,15,12.80
2015,06,19,02,16,12.80
2015,06,19,02,17,12.90
2015,06,19,02,18,12.90
2015,06,19,02,19,12.90
2015,06,19,02,20,12.90
2015,06,19,02,21,12.90
2015,06,19,02,22,12.90
2015,06,19,02,23,12.90
2015,06,19,02,24,12.90
2015,06,19,02,25,12.90
2015,06,19,02,26,12.90
2015,06,19,02,27,12.90
2015,06,19,02,28,12.90
2015,06,19,02,29,12.90
2015,06,19,02,30,12.80
2015,06,19,02,31,12.80
2015,06,19,02,32,12.80
2015,06,19,02,33,12.80
2015,06,19,02,34,12.80
2015,06,19,02,35,12.80
2015,06,19,02,36,12.80
2015,06,19,02,37,12.80
2015,06,19,02,38,12.80
2015,06,19,02,39,12.80
2015,06,19,02,40,12.80
2015,06,19,02,41,12.90
2015,06,19,02,42,12.90
2015,06,19,02,43,12.90
2015,06,19,02,44,12.90
2015,06,19,02,45,12.90
2015,06,19,02,46,12.90
2015,06,19,02,47,12.90
2015,06,19,02,48,12.90
2015,06,19,02,49,12.90
2015,06,19,02,50,12.90
2015,06,19,02,51,12.80
2015,06,19,02,52,12.80
2015,06,19,02,53,12.80
2015,06,19,02,54,12.80
2015,06,19,02,55,12.80
2015,06,19,02,56,12.80
2015,06,19,02,57,12.80
2015,06,19,02,58,12.80
2015,06,19,02,59,12.70
2015,06,19,03,00,12.70
2015,06,19,03,01,12.70
2015,06,19,03,02,12.70
2015,06,19,03,03,12.70
2015,06,19,03,04,12.70
2015,06,19,03,05,12.70
2015,06,19,03,06,12.70
2015,06,19,03,07,12.70
2015,06,19,03,08,12.70
2015,06,19,03,09,12.60
2015,06,19,03,10,12.60
2015,06,19,03,11,12.60
2015,06,19,03,12,12.60
2015,06,19,03,13,12.60
2015,06,19,03,14,12.60
2015,06,19,03,15,12.60
2015,06,19,03,16,12.50
2015,06,19,03,17,12.50
2015,06,19,03,18,12.40
2015,06,19,03,19,12.40
2015,06,19,03,20,12.40
2015,06,19,03,21,12.40
2015,06,19,03,22,12.40
2015,06,19,03,23,12.30
2015,06,19,03,24,12.30
2015,06,19,03,25,12.40
2015,06,19,03,26,12.40
2015,06,19,03,27,12.40
2015,06,19,03,28,12.40
2015,06,19,03,29,12.40
2015,06,19,03,30,12.40
2015,06,19,03,31,12.40
2015,06,19,03,32,12.40
2015,06,19,03,33,12.40
2015,06,19,03,34,12.40
2015,06,19,03,35,12.40
2015,06,19,03,36,12.30
2015,06,19,03,37,12.40
2015,06,19,03,38,12.40
2015,06,19,03,39,12.40
2015,06,19,03,40,12.40
2015,06,19,03,41,12.40
2015,06,19,03,42,12.40
2015,06,19,03,43,12.40
2015,06,19,03,44,12.40
2015,06,19,03,45,12.40
2015,06,19,03,46,12.40
2015,06,19,03,47,12.40
2015,06,19,03,48,12.40
2015,06,19,03,49,12.40
2015,06,19,03,50,12.40
2015,06,19,03,51,12.40
2015,06,19,03,52,12.40
2015,06,19,03,53,12.40
2015,06,19,03,54,12.40
2015,06,19,03,55,12.40
2015,06,19,03,56,12.40
2015,06,19,03,57,12.40
2015,06,19,03,58,12.40
2015,06,19,03,59,12.40
2015,06,19,04,00,12.40
2015,06,19,04,01,12.40
2015,06,19,04,02,12.40
2015,06,19,04,03,12.40
2015,06,19,04,04,12.40
2015,06,19,04,05,12.40
2015,06,19,04,06,12.40
2015,06,19,04,07,12.40
2015,06,19,04,08,12.50
2015,06,19,04,09,12.50
2015,06,19,04,10,12.50
2015,06,19,04,11,12.50
2015,06,19,04,12,12.50
2015,06,19,04,13,12.50
2015,06,19,04,14,12.50
2015,06,19,04,15,12.50
2015,06,19,04,16,12.50
2015,06,19,04,17,12.40
2015,06,19,04,18,12.40
2015,06,19,04,19,12.40
2015,06,19,04,20,12.40
2015,06,19,04,21,12.40
2015,06,19,04,22,12.40
2015,06,19,04,23,12.40
2015,06,19,04,24,12.40
2015,06,19,04,25,12.40
2015,06,19,04,26,12.40
2015,06,19,04,27,12.30
2015,06,19,04,28,12.30
2015,06,19,04,29,12.30
2015,06,19,04,30,12.30
2015,06,19,04,31,12.30
2015,06,19,04,32,12.30
2015,06,19,04,33,12.20
2015,06,19,04,34,12.20
2015,06,19,04,35,12.20
2015,06,19,04,36,12.20
2015,06,19,04,37,12.20
2015,06,19,04,38,12.20
2015,06,19,04,39,12.10
2015,06,19,04,40,12.10
2015,06,19,04,41,12.10
2015,06,19,04,42,12.10
2015,06,19,04,43,12.10
2015,06,19,04,44,12.10
2015,06,19,04,45,12.10
2015,06,19,04,46,12.10
2015,06,19,04,47,12.10
2015,06,19,04,48,12.00
2015,06,19,04,49,12.00
2015,06,19,04,50,12.00
2015,06,19,04,51,12.00
2015,06,19,04,52,11.90
2015,06,19,04,53,11.90
2015,06,19,04,54,11.90
2015,06,19,04,55,11.90
2015,06,19,04,56,11.90
2015,06,19,04,57,11.90
2015,06,19,04,58,11.90
2015,06,19,04,59,11.90
2015,06,19,05,00,11.90
2015,06,19,05,01,11.90
2015,06,19,05,02,11.90
2015,06,19,05,03,11.90
2015,06,19,05,04,11.90
2015,06,19,05,05,11.80
2015,06,19,05,06,11.80
2015,06,19,05,07,11.80
2015,06,19,05,08,11.80
2015,06,19,05,09,11.80
2015,06,19,05,10,11.80
2015,06,19,05,11,11.80
2015,06,19,05,12,11.80
2015,06,19,05,13,11.80
2015,06,19,05,14,11.80
2015,06,19,05,15,11.80
2015,06,19,05,16,11.80
2015,06,19,05,17,11.80
2015,06,19,05,18,11.80
2015,06,19,05,19,11.80
2015,06,19,05,20,11.80
2015,06,19,05,21,11.80
2015,06,19,05,22,11.80
2015,06,19,05,23,11.80
2015,06,19,05,24,11.80
2015,06,19,05,25,11.80
2015,06,19,05,26,11.80
2015,06,19,05,27,11.80
2015,06,19,05,28,11.80
2015,06,19,05,29,11.80
2015,06,19,05,30,11.80
2015,06,19,05,31,11.80
2015,06,19,05,32,11.80
2015,06,19,05,33,11.80
2015,06,19,05,34,11.80
2015,06,19,05,35,11.80
2015,06,19,05,36,11.80
2015,06,19,05,37,11.80
2015,06,19,05,38,11.80
2015,06,19,05,39,11.80
2015,06,19,05,40,11.80
2015,06,19,05,41,11.80
2015,06,19,05,42,11.80
2015,06,19,05,43,11.80
2015,06,19,05,44,11.80
2015,06,19,05,45,11.80
2015,06,19,05,46,11.80
2015,06,19,05,47,11.80
2015,06,19,05,48,11.80
2015,06,19,05,49,11.80
2015,06,19,05,50,11.80
2015,06,19,05,51,11.80
2015,06,19,05,52,11.80
2015,06,19,05,53,11.80
2015,06,19,05,54,11.80
2015,06,19,05,55,11.80
2015,06,19,05,56,11.80
2015,06,19,05,57,11.80
2015,06,19,05,58,11.80
2015,06,19,05,59,11.80
2015,06,19,06,00,11.90
2015,06,19,06,01,11.90
2015,06,19,06,02,11.90
2015,06,19,06,03,11.90
2015,06,19,06,04,11.90
2015,06,19,06,05,11.90
2015,06,19,06,06,11.90
2015,06,19,06,07,11.90
2015,06,19,06,08,11.90
2015,06,19,06,09,11.90
2015,06,19,06,10,11.90
2015,06,19,06,11,11.90
2015,06,19,06,12,11.90
2015,06,19,06,13,11.90
2015,06,19,06,14,11.80
2015,06,19,06,15,11.90
2015,06,19,06,16,11.90
2015,06,19,06,17,11.90
2015,06,19,06,18,11.90
2015,06,19,06,19,11.90
2015,06,19,06,20,11.90
2015,06,19,06,21,11.90
2015,06,19,06,22,11.90
2015,06,19,06,23,11.90
2015,06,19,06,24,11.90
2015,06,19,06,25,12.00
2015,06,19,06,26,12.00
2015,06,19,06,27,12.00
2015,06,19,06,28,12.00
2015,06,19,06,29,12.00
2015,06,19,06,30,12.10
2015,06,19,06,31,12.10
2015,06,19,06,32,12.10
2015,06,19,06,33,12.10
2015,06,19,06,34,12.10
2015,06,19,06,35,12.10
2015,06,19,06,36,12.10
2015,06,19,06,37,12.10
2015,06,19,06,38,12.10
2015,06,19,06,39,12.10
2015,06,19,06,40,12.10
2015,06,19,06,41,12.10
2015,06,19,06,42,12.10
2015,06,19,06,43,12.20
2015,06,19,06,44,12.20
2015,06,19,06,45,12.20
2015,06,19,06,46,12.20
2015,06,19,06,47,12.30
2015,06,19,06,48,12.30
2015,06,19,06,49,12.40
2015,06,19,06,50,12.40
2015,06,19,06,51,12.40
2015,06,19,06,52,12.50
2015,06,19,06,53,12.50
2015,06,19,06,54,12.60
2015,06,19,06,55,12.60
2015,06,19,06,56,12.60
2015,06,19,06,57,12.60
2015,06,19,06,58,12.70
2015,06,19,06,59,12.70
2015,06,19,07,00,12.70
2015,06,19,07,01,12.70
2015,06,19,07,02,12.80
2015,06,19,07,03,12.80
2015,06,19,07,04,12.80
2015,06,19,07,05,12.80
2015,06,19,07,06,12.80
2015,06,19,07,07,12.90
2015,06,19,07,08,12.90
2015,06,19,07,09,12.90
2015,06,19,07,10,12.90
2015,06,19,07,11,12.90
2015,06,19,07,12,12.90
2015,06,19,07,13,12.90
2015,06,19,07,14,12.90
2015,06,19,07,15,12.90
2015,06,19,07,16,12.90
2015,06,19,07,17,12.90
2015,06,19,07,18,12.90
2015,06,19,07,19,12.90
2015,06,19,07,20,12.90
2015,06,19,07,21,12.90
2015,06,19,07,22,12.90
2015,06,19,07,23,13.00
2015,06,19,07,24,13.00
2015,06,19,07,25,13.00
2015,06,19,07,26,13.00
2015,06,19,07,27,13.00
2015,06,19,07,28,12.90
2015,06,19,07,29,12.90
2015,06,19,07,30,12.90
2015,06,19,07,31,12.90
2015,06,19,07,32,12.90
2015,06,19,07,33,12.80
2015,06,19,07,34,12.80
2015,06,19,07,35,12.80
2015,06,19,07,36,12.80
2015,06,19,07,37,12.80
2015,06,19,07,38,12.80
2015,06,19,07,39,12.80
2015,06,19,07,40,12.80
2015,06,19,07,41,12.80
2015,06,19,07,42,12.80
2015,06,19,07,43,12.90
2015,06,19,07,44,12.90
2015,06,19,07,45,12.90
2015,06,19,07,46,13.00
2015,06,19,07,47,13.00
2015,06,19,07,48,13.00
2015,06,19,07,49,13.10
2015,06,19,07,50,13.10
2015,06,19,07,51,13.10
2015,06,19,07,52,13.10
2015,06,19,07,53,13.20
2015,06,19,07,54,13.20
2015,06,19,07,55,13.20
2015,06,19,07,56,13.10
2015,06,19,07,57,13.10
2015,06,19,07,58,13.10
2015,06,19,07,59,13.10
2015,06,19,08,00,13.10
2015,06,19,08,01,13.10
2015,06,19,08,02,13.10
2015,06,19,08,03,13.10
2015,06,19,08,04,13.10
2015,06,19,08,05,13.10
2015,06,19,08,06,13.00
2015,06,19,08,07,13.00
2015,06,19,08,08,13.00
2015,06,19,08,09,13.10
2015,06,19,08,10,13.10
2015,06,19,08,11,13.20
2015,06,19,08,12,13.30
2015,06,19,08,13,13.30
2015,06,19,08,14,13.40
2015,06,19,08,15,13.50
2015,06,19,08,16,13.50
2015,06,19,08,17,13.60
2015,06,19,08,18,13.60
2015,06,19,08,19,13.60
2015,06,19,08,20,13.60
2015,06,19,08,21,13.50
2015,06,19,08,22,13.50
2015,06,19,08,23,13.50
2015,06,19,08,24,13.40
2015,06,19,08,25,13.40
2015,06,19,08,26,13.30
2015,06,19,08,27,13.30
2015,06,19,08,28,13.30
2015,06,19,08,29,13.40
2015,06,19,08,30,13.50
2015,06,19,08,31,13.60
2015,06,19,08,32,13.60
2015,06,19,08,33,13.70
2015,06,19,08,34,13.70
2015,06,19,08,35,13.80
2015,06,19,08,36,13.80
2015,06,19,08,37,13.80
2015,06,19,08,38,13.80
2015,06,19,08,39,13.80
2015,06,19,08,40,13.80
2015,06,19,08,41,13.90
2015,06,19,08,42,13.90
2015,06,19,08,43,13.90
2015,06,19,08,44,13.90
2015,06,19,08,45,13.90
2015,06,19,08,46,13.90
2015,06,19,08,47,13.90
2015,06,19,08,48,14.00
2015,06,19,08,49,14.00
2015,06,19,08,50,14.00
2015,06,19,08,51,14.00
2015,06,19,08,52,14.00
2015,06,19,08,53,14.10
2015,06,19,08,54,14.10
2015,06,19,08,55,14.20
2015,06,19,08,56,14.20
2015,06,19,08,57,14.20
2015,06,19,08,58,14.10
2015,06,19,08,59,14.20
2015,06,19,09,00,14.20
2015,06,19,09,01,14.30
2015,06,19,09,02,14.30
2015,06,19,09,03,14.30
2015,06,19,09,04,14.30
2015,06,19,09,05,14.40
2015,06,19,09,06,14.40
2015,06,19,09,07,14.50
2015,06,19,09,08,14.50
2015,06,19,09,09,14.50
2015,06,19,09,10,14.60
2015,06,19,09,11,14.60
2015,06,19,09,12,14.60
2015,06,19,09,13,14.50
2015,06,19,09,14,14.50
2015,06,19,09,15,14.50
2015,06,19,09,16,14.50
2015,06,19,09,17,14.50
2015,06,19,09,18,14.60
2015,06,19,09,19,14.60
2015,06,19,09,20,14.60
2015,06,19,09,21,14.60
2015,06,19,09,22,14.70
2015,06,19,09,23,14.70
2015,06,19,09,24,14.80
2015,06,19,09,25,14.80
2015,06,19,09,26,14.80
2015,06,19,09,27,14.80
2015,06,19,09,28,14.80
2015,06,19,09,29,14.80
2015,06,19,09,30,14.80
2015,06,19,09,31,14.80
2015,06,19,09,32,14.80
2015,06,19,09,33,14.80
2015,06,19,09,34,14.90
2015,06,19,09,35,14.90
2015,06,19,09,36,14.90
2015,06,19,09,37,14.80
2015,06,19,09,38,14.80
2015,06,19,09,39,14.80
2015,06,19,09,40,14.80
2015,06,19,09,41,14.80
2015,06,19,09,42,14.90
2015,06,19,09,43,15.00
2015,06,19,09,44,15.10
2015,06,19,09,45,15.10
2015,06,19,09,46,15.10
2015,06,19,09,47,15.20
2015,06,19,09,48,15.10
2015,06,19,09,49,15.10
2015,06,19,09,50,15.00
2015,06,19,09,51,15.00
2015,06,19,09,52,14.90
2015,06,19,09,53,14.90
2015,06,19,09,54,14.90
2015,06,19,09,55,14.90
2015,06,19,09,56,14.90
2015,06,19,09,57,14.90
2015,06,19,09,58,14.90
2015,06,19,09,59,14.90
2015,06,19,10,00,15.00
2015,06,19,10,01,14.90
2015,06,19,10,02,14.90
2015,06,19,10,03,14.90
2015,06,19,10,04,14.90
2015,06,19,10,05,14.90
2015,06,19,10,06,14.90
2015,06,19,10,07,14.90
2015,06,19,10,08,14.90
2015,06,19,10,09,14.90
2015,06,19,10,10,14.80
2015,06,19,10,11,14.90
2015,06,19,10,12,14.80
2015,06,19,10,13,14.80
2015,06,19,10,14,14.80
2015,06,19,10,15,14.90
2015,06,19,10,16,14.90
2015,06,19,10,17,15.00
2015,06,19,10,18,15.00
2015,06,19,10,19,15.10
2015,06,19,10,20,15.20
2015,06,19,10,21,15.20
2015,06,19,10,22,15.30
2015,06,19,10,23,15.30
2015,06,19,10,24,15.30
2015,06,19,10,25,15.40
2015,06,19,10,26,15.30
2015,06,19,10,27,15.30
2015,06,19,10,28,15.30
2015,06,19,10,29,15.20
2015,06,19,10,30,15.30
2015,06,19,10,31,15.30
2015,06,19,10,32,15.30
2015,06,19,10,33,15.30
2015,06,19,10,34,15.30
2015,06,19,10,35,15.20
2015,06,19,10,36,15.20
2015,06,19,10,37,15.30
2015,06,19,10,38,15.30
2015,06,19,10,39,15.20
2015,06,19,10,40,15.20
2015,06,19,10,41,15.20
2015,06,19,10,42,15.20
2015,06,19,10,43,15.20
2015,06,19,10,44,15.20
2015,06,19,10,45,15.20
2015,06,19,10,46,15.20
2015,06,19,10,47,15.30
2015,06,19,10,48,15.30
2015,06,19,10,49,15.30
2015,06,19,10,50,15.30
2015,06,19,10,51,15.30
2015,06,19,10,52,15.40
2015,06,19,10,53,15.40
2015,06,19,10,54,15.50
2015,06,19,10,55,15.60
2015,06,19,10,56,15.70
2015,06,19,10,57,15.70
2015,06,19,10,58,15.80
2015,06,19,10,59,15.80
2015,06,19,11,00,15.80
2015,06,19,11,01,15.80
2015,06,19,11,02,15.80
2015,06,19,11,03,15.80
2015,06,19,11,04,15.80
2015,06,19,11,05,15.90
2015,06,19,11,06,15.90
2015,06,19,11,07,15.90
2015,06,19,11,08,15.80
2015,06,19,11,09,15.80
2015,06,19,11,10,15.70
2015,06,19,11,11,15.70
2015,06,19,11,12,15.70
2015,06,19,11,13,15.70
2015,06,19,11,14,15.80
2015,06,19,11,15,15.80
2015,06,19,11,16,15.80
2015,06,19,11,17,15.80
2015,06,19,11,18,15.80
2015,06,19,11,19,15.80
2015,06,19,11,20,15.80
2015,06,19,11,21,15.80
2015,06,19,11,22,15.80
2015,06,19,11,23,15.80
2015,06,19,11,24,15.90
2015,06,19,11,25,15.90
2015,06,19,11,26,15.90
2015,06,19,11,27,16.10
2015,06,19,11,28,16.10
2015,06,19,11,29,16.20
2015,06,19,11,30,16.20
2015,06,19,11,31,16.20
2015,06,19,11,32,16.20
2015,06,19,11,33,16.20
2015,06,19,11,34,16.20
2015,06,19,11,35,16.20
2015,06,19,11,36,16.20
2015,06,19,11,37,16.20
2015,06,19,11,38,16.20
2015,06,19,11,39,16.20
2015,06,19,11,40,16.20
2015,06,19,11,41,16.20
2015,06,19,11,42,16.20
2015,06,19,11,43,16.10
2015,06,19,11,44,16.10
2015,06,19,11,45,16.10
2015,06,19,11,46,16.10
2015,06,19,11,47,16.10
2015,06,19,11,48,16.10
2015,06,19,11,49,16.10
2015,06,19,11,50,16.20
2015,06,19,11,51,16.20
2015,06,19,11,52,16.20
2015,06,19,11,53,16.30
2015,06,19,11,54,16.30
2015,06,19,11,55,16.40
2015,06,19,11,56,16.40
2015,06,19,11,57,16.40
2015,06,19,11,58,16.50
2015,06,19,11,59,16.50
2015,06,19,12,00,16.50
2015,06,19,12,01,16.50
2015,06,19,12,02,16.50
2015,06,19,12,03,16.50
2015,06,19,12,04,16.60
2015,06,19,12,05,16.60
2015,06,19,12,06,16.70
2015,06,19,12,07,16.70
2015,06,19,12,08,16.80
2015,06,19,12,09,16.80
2015,06,19,12,10,16.90
2015,06,19,12,11,16.90
2015,06,19,12,12,16.90
2015,06,19,12,13,16.80
2015,06,19,12,14,16.80
2015,06,19,12,15,16.80
2015,06,19,12,16,16.90
2015,06,19,12,17,16.90
2015,06,19,12,18,16.90
2015,06,19,12,19,16.90
2015,06,19,12,20,16.90
2015,06,19,12,21,17.00
2015,06,19,12,22,17.00
2015,06,19,12,23,17.10
2015,06,19,12,24,17.10
2015,06,19,12,25,17.00
2015,06,19,12,26,16.90
2015,06,19,12,27,17.00
2015,06,19,12,28,17.00
2015,06,19,12,29,17.10
2015,06,19,12,30,17.10
2015,06,19,12,31,17.10
2015,06,19,12,32,17.10
2015,06,19,12,33,17.10
2015,06,19,12,34,17.10
2015,06,19,12,35,17.20
2015,06,19,12,36,17.20
2015,06,19,12,37,17.20
2015,06,19,12,38,17.20
2015,06,19,12,39,17.20
2015,06,19,12,40,17.20
2015,06,19,12,41,17.20
2015,06,19,12,42,17.20
2015,06,19,12,43,17.30
2015,06,19,12,44,17.30
2015,06,19,12,45,17.30
2015,06,19,12,46,17.30
2015,06,19,12,47,17.30
2015,06,19,12,48,17.40
2015,06,19,12,49,17.50
2015,06,19,12,50,17.50
2015,06,19,12,51,17.50
2015,06,19,12,52,17.60
2015,06,19,12,53,17.70
2015,06,19,12,54,17.80
2015,06,19,12,55,17.80
2015,06,19,12,56,17.90
2015,06,19,12,57,17.90
2015,06,19,12,58,17.80
2015,06,19,12,59,17.80
2015,06,19,13,00,17.80
2015,06,19,13,01,17.80
2015,06,19,13,02,17.80
2015,06,19,13,03,17.80
2015,06,19,13,04,17.90
2015,06,19,13,05,18.00
2015,06,19,13,06,18.00
2015,06,19,13,07,18.00
2015,06,19,13,08,18.10
2015,06,19,13,09,18.10
2015,06,19,13,10,18.20
2015,06,19,13,11,18.20
2015,06,19,13,12,18.20
2015,06,19,13,13,18.30
2015,06,19,13,14,18.30
2015,06,19,13,15,18.30
2015,06,19,13,16,18.30
2015,06,19,13,17,18.20
2015,06,19,13,18,18.20
2015,06,19,13,19,18.20
2015,06,19,13,20,18.20
2015,06,19,13,21,18.20
2015,06,19,13,22,18.10
2015,06,19,13,23,18.20
2015,06,19,13,24,18.20
2015,06,19,13,25,18.10
2015,06,19,13,26,18.10
2015,06,19,13,27,18.10
2015,06,19,13,28,18.10
2015,06,19,13,29,18.00
2015,06,19,13,30,18.00
2015,06,19,13,31,18.00
2015,06,19,13,32,17.90
2015,06,19,13,33,18.00
2015,06,19,13,34,18.00
2015,06,19,13,35,18.10
2015,06,19,13,36,18.10
2015,06,19,13,37,18.10
2015,06,19,13,38,18.10
2015,06,19,13,39,18.10
2015,06,19,13,40,18.20
2015,06,19,13,41,18.20
2015,06,19,13,42,18.20
2015,06,19,13,43,18.20
2015,06,19,13,44,18.20
2015,06,19,13,45,18.20
2015,06,19,13,46,18.20
2015,06,19,13,47,18.20
2015,06,19,13,48,18.20
2015,06,19,13,49,18.20
2015,06,19,13,50,18.20
2015,06,19,13,51,18.20
2015,06,19,13,52,18.20
2015,06,19,13,53,18.20
2015,06,19,13,54,18.20
2015,06,19,13,55,18.20
2015,06,19,13,56,18.20
2015,06,19,13,57,18.20
2015,06,19,13,58,18.20
2015,06,19,13,59,18.20
2015,06,19,14,00,18.30
2015,06,19,14,01,18.30
2015,06,19,14,02,18.30
2015,06,19,14,03,18.30
2015,06,19,14,04,18.30
2015,06,19,14,05,18.40
2015,06,19,14,06,18.40
2015,06,19,14,07,18.40
2015,06,19,14,08,18.40
2015,06,19,14,09,18.40
2015,06,19,14,10,18.40
2015,06,19,14,11,18.50
2015,06,19,14,12,18.50
2015,06,19,14,13,18.50
2015,06,19,14,14,18.60
2015,06,19,14,15,18.60
2015,06,19,14,16,18.70
2015,06,19,14,17,18.70
2015,06,19,14,18,18.80
2015,06,19,14,19,18.80
2015,06,19,14,20,18.80
2015,06,19,14,21,18.80
2015,06,19,14,22,18.80
2015,06,19,14,23,18.80
2015,06,19,14,24,18.80
2015,06,19,14,25,18.80
2015,06,19,14,26,18.80
2015,06,19,14,27,18.80
2015,06,19,14,28,18.80
2015,06,19,14,29,18.70
2015,06,19,14,30,18.70
2015,06,19,14,31,18.60
2015,06,19,14,32,18.60
2015,06,19,14,33,18.60
2015,06,19,14,34,18.70
2015,06,19,14,35,18.70
2015,06,19,14,36,18.70
2015,06,19,14,37,18.80
2015,06,19,14,38,18.80
2015,06,19,14,39,18.80
2015,06,19,14,40,18.80
2015,06,19,14,41,18.80
2015,06,19,14,42,18.90
2015,06,19,14,43,18.90
2015,06,19,14,44,19.00
2015,06,19,14,45,19.00
2015,06,19,14,46,19.10
2015,06,19,14,47,19.10
2015,06,19,14,48,19.20
2015,06,19,14,49,19.10
2015,06,19,14,50,19.10
2015,06,19,14,51,19.20
2015,06,19,14,52,19.10
2015,06,19,14,53,19.10
2015,06,19,14,54,19.00
2015,06,19,14,55,19.00
2015,06,19,14,56,19.00
2015,06,19,14,57,18.90
2015,06,19,14,58,18.90
2015,06,19,14,59,18.90
2015,06,19,15,00,18.90
2015,06,19,15,01,18.90
2015,06,19,15,02,19.00
2015,06,19,15,03,19.00
2015,06,19,15,04,19.10
2015,06,19,15,05,19.10
2015,06,19,15,06,19.10
2015,06,19,15,07,19.20
2015,06,19,15,08,19.20
2015,06,19,15,09,19.20
2015,06,19,15,10,19.20
2015,06,19,15,11,19.10
2015,06,19,15,12,19.10
2015,06,19,15,13,19.10
2015,06,19,15,14,19.20
2015,06,19,15,15,19.20
2015,06,19,15,16,19.10
2015,06,19,15,17,19.10
2015,06,19,15,18,19.10
2015,06,19,15,19,19.10
2015,06,19,15,20,19.10
2015,06,19,15,21,19.10
2015,06,19,15,22,19.20
2015,06,19,15,23,19.20
2015,06,19,15,24,19.10
2015,06,19,15,25,19.10
2015,06,19,15,26,19.10
2015,06,19,15,27,19.10
2015,06,19,15,28,19.10
2015,06,19,15,29,19.10
2015,06,19,15,30,19.10
2015,06,19,15,31,19.00
2015,06,19,15,32,19.00
2015,06,19,15,33,18.90
2015,06,19,15,34,18.90
2015,06,19,15,35,18.90
2015,06,19,15,36,19.00
2015,06,19,15,37,19.00
2015,06,19,15,38,19.00
2015,06,19,15,39,19.00
2015,06,19,15,40,18.90
2015,06,19,15,41,19.00
2015,06,19,15,42,19.00
2015,06,19,15,43,19.10
2015,06,19,15,44,19.10
2015,06,19,15,45,19.20
2015,06,19,15,46,19.10
2015,06,19,15,47,19.10
2015,06,19,15,48,19.10
2015,06,19,15,49,19.10
2015,06,19,15,50,19.00
2015,06,19,15,51,19.00
2015,06,19,15,52,19.00
2015,06,19,15,53,18.90
2015,06,19,15,54,18.90
2015,06,19,15,55,18.90
2015,06,19,15,56,18.90
2015,06,19,15,57,18.90
2015,06,19,15,58,18.90
2015,06,19,15,59,19.00
2015,06,19,16,00,19.00
2015,06,19,16,01,19.10
2015,06,19,16,02,19.10
2015,06,19,16,03,19.10
2015,06,19,16,04,19.10
2015,06,19,16,05,19.10
2015,06,19,16,06,19.10
2015,06,19,16,07,19.10
2015,06,19,16,08,19.10
2015,06,19,16,09,19.10
2015,06,19,16,10,19.20
2015,06,19,16,11,19.20
2015,06,19,16,12,19.10
2015,06,19,16,13,19.10
2015,06,19,16,14,19.20
2015,06,19,16,15,19.20
2015,06,19,16,16,19.20
2015,06,19,16,17,19.20
2015,06,19,16,18,19.20
2015,06,19,16,19,19.20
2015,06,19,16,20,19.20
2015,06,19,16,21,19.20
2015,06,19,16,22,19.20
2015,06,19,16,23,19.20
2015,06,19,16,24,19.20
2015,06,19,16,25,19.20
2015,06,19,16,26,19.20
2015,06,19,16,27,19.20
2015,06,19,16,28,19.20
2015,06,19,16,29,19.20
2015,06,19,16,30,19.30
2015,06,19,16,31,19.30
2015,06,19,16,32,19.30
2015,06,19,16,33,19.30
2015,06,19,16,34,19.30
2015,06,19,16,35,19.30
2015,06,19,16,36,19.30
2015,06,19,16,37,19.30
2015,06,19,16,38,19.40
2015,06,19,16,39,19.40
2015,06,19,16,40,19.40
2015,06,19,16,41,19.40
2015,06,19,16,42,19.40
2015,06,19,16,43,19.40
2015,06,19,16,44,19.40
2015,06,19,16,45,19.50
2015,06,19,16,46,19.50
2015,06,19,16,47,19.50
2015,06,19,16,48,19.60
2015,06,19,16,49,19.60
2015,06,19,16,50,19.60
2015,06,19,16,51,19.70
2015,06,19,16,52,19.70
2015,06,19,16,53,19.60
2015,06,19,16,54,19.60
2015,06,19,16,55,19.50
2015,06,19,16,56,19.40
2015,06,19,16,57,19.40
2015,06,19,16,58,19.30
2015,06,19,16,59,19.30
2015,06,19,17,00,19.30
2015,06,19,17,01,19.30
2015,06,19,17,02,19.30
2015,06,19,17,03,19.30
2015,06,19,17,04,19.30
2015,06,19,17,05,19.30
2015,06,19,17,06,19.30
2015,06,19,17,07,19.20
2015,06,19,17,08,19.20
2015,06,19,17,09,19.10
2015,06,19,17,10,19.10
2015,06,19,17,11,19.00
2015,06,19,17,12,18.90
2015,06,19,17,13,18.80
2015,06,19,17,14,18.70
2015,06,19,17,15,18.60
2015,06,19,17,16,18.60
2015,06,19,17,17,18.60
2015,06,19,17,18,18.60
2015,06,19,17,19,18.60